Jefferson, NC

2:45 AM EDT on September 15, 2019 (GMT -0400)
Ashe County

Weather History for KGEV - May, 2019

Change the Weather History Date:

Thursday, May 16, 2019

  Actual Average Record
Temperature  
Mean Temperature 58 °F -  
Max Temperature 69 °F 70 °F 81 °F (1974)
Min Temperature 48 °F 47 °F 35 °F (2000)
Degree Days  
Heating Degree Days 6    
Growing Degree Days 8 (Base 50)    
Moisture  
Dew Point 45 °F    
Average Humidity 60    
Maximum Humidity 81    
Minimum Humidity 37    
Precipitation  
Precipitation 0.00 in - - ()
Sea Level Pressure  
Sea Level Pressure 30.06 in    
Wind  
Wind Speed 6 mph (West)    
Max Wind Speed 12 mph    
Max Gust Speed 16 mph    
Visibility 10 miles    
Events      
Averages and records for this station are not official NWS values.
T = Trace of Precipitation, MM = Missing Value Source: NWS Daily Summary

Daily Weather History Graph

Daily Weather History Graph

Search for Another Location

Airport or City:

Astronomy

May. 16, 2019 Rise Set
Actual Time 6:18 AM EDT 8:26 PM EDT
Civil Twilight 5:49 AM EDT 8:55 PM EDT
Nautical Twilight 5:14 AM EDT 9:30 PM EDT
Astronomical Twilight 4:36 AM EDT 10:08 PM EDT
Moon 6:09 PM EDT (5/16) 5:08 AM EDT (5/16)
Length of Visible Light 15h 05m
Length of Day
14h 07m
Waxing Gibbous, 94% of the Moon is Illuminated
May 16
Waxing Gibbous
May 18
Full
May 26
Last Quarter
Jun 3
New
Jun 10
First Quarter

Hourly Weather History & Observations

Time (EDT) Temp. Dew Point Humidity Pressure Visibility Wind Dir Wind Speed Gust Speed Precip Events Conditions
12:05 AM 52.9 °F 39.4 °F 60% 30.07 in 10.0 mi West 6.9 mph - N/A   Clear
12:25 AM 52.7 °F 39.6 °F 61% 30.08 in 10.0 mi WNW 5.8 mph - N/A   Clear
12:45 AM 52.7 °F 40.1 °F 62% 30.07 in 10.0 mi West 8.1 mph - N/A   Clear
1:05 AM 52.7 °F 40.8 °F 64% 30.07 in 10.0 mi West 9.2 mph - N/A   Clear
1:25 AM 52.7 °F 41.4 °F 65% 30.07 in 10.0 mi WNW 8.1 mph - N/A   Clear
1:45 AM 52.2 °F 41.5 °F 67% 30.07 in 10.0 mi WNW 6.9 mph - N/A   Clear
2:05 AM 48.0 °F 40.8 °F 76% 30.07 in 10.0 mi Calm Calm - N/A   Clear
2:25 AM 49.3 °F 41.5 °F 75% 30.07 in 10.0 mi SW 3.5 mph - N/A   Clear
2:45 AM 50.2 °F 41.7 °F 73% 30.07 in 10.0 mi SW 4.6 mph - N/A   Clear
3:05 AM 50.9 °F 41.9 °F 71% 30.08 in 10.0 mi West 4.6 mph - N/A   Mostly Cloudy
3:25 AM 51.1 °F 42.1 °F 71% 30.07 in 10.0 mi West 6.9 mph - N/A   Overcast
3:45 AM 51.8 °F 42.4 °F 70% 30.07 in 10.0 mi WNW 8.1 mph - N/A   Overcast
4:05 AM 51.4 °F 42.1 °F 70% 30.06 in 10.0 mi WNW 6.9 mph - N/A   Overcast
4:25 AM 51.6 °F 42.4 °F 71% 30.06 in 10.0 mi WNW 9.2 mph - N/A   Scattered Clouds
4:45 AM 50.7 °F 42.4 °F 73% 30.06 in 10.0 mi West 4.6 mph - N/A   Clear
5:05 AM 50.2 °F 42.8 °F 76% 30.06 in 10.0 mi West 5.8 mph - N/A   Clear
5:25 AM 50.0 °F 43.0 °F 77% 30.05 in 10.0 mi West 5.8 mph - N/A   Clear
5:45 AM 49.5 °F 43.0 °F 78% 30.06 in 10.0 mi Calm Calm - N/A   Clear
6:05 AM 49.8 °F 43.2 °F 78% 30.06 in 10.0 mi Calm Calm - N/A   Clear
6:25 AM 50.0 °F 43.5 °F 78% 30.07 in 10.0 mi Calm Calm - N/A   Clear
6:45 AM 49.5 °F 43.7 °F 81% 30.08 in 10.0 mi Calm Calm - N/A   Clear
7:05 AM 50.2 °F 44.1 °F 79% 30.09 in 10.0 mi Calm Calm - N/A   Clear
7:25 AM 50.7 °F 44.1 °F 78% 30.09 in 10.0 mi Calm Calm - N/A   Clear
7:45 AM 51.8 °F 44.6 °F 76% 30.09 in 10.0 mi Calm Calm - N/A   Clear
8:05 AM 52.7 °F 45.0 °F 75% 30.09 in 10.0 mi Calm Calm - N/A   Clear
8:45 AM 54.7 °F 46.4 °F 74% 30.10 in 10.0 mi Calm Calm - N/A   Clear
9:05 AM 55.6 °F 46.4 °F 71% 30.11 in 10.0 mi Calm Calm - N/A   Clear
9:25 AM 56.8 °F 45.7 °F 66% 30.11 in 10.0 mi West 9.2 mph - N/A   Clear
9:45 AM 57.2 °F 45.7 °F 65% 30.11 in 10.0 mi West 6.9 mph - N/A   Clear
10:05 AM 57.2 °F 45.9 °F 66% 30.11 in 10.0 mi NW 4.6 mph - N/A   Clear
10:25 AM 58.5 °F 46.4 °F 64% 30.11 in 10.0 mi West 10.4 mph - N/A   Clear
10:45 AM 59.2 °F 46.6 °F 63% 30.11 in 10.0 mi WNW 9.2 mph - N/A   Clear
11:05 AM 59.7 °F 46.6 °F 62% 30.10 in 10.0 mi WNW 5.8 mph - N/A   Scattered Clouds
11:25 AM 61.0 °F 47.1 °F 60% 30.10 in 10.0 mi NW 5.8 mph - N/A   Scattered Clouds
11:45 AM 61.0 °F 46.8 °F 59% 30.10 in 10.0 mi West 5.8 mph - N/A   Mostly Cloudy
12:05 PM 62.2 °F 46.8 °F 57% 30.09 in 10.0 mi WNW 11.5 mph - N/A   Mostly Cloudy
12:25 PM 63.0 °F 46.9 °F 56% 30.09 in 10.0 mi West 9.2 mph - N/A   Scattered Clouds
12:45 PM 63.5 °F 46.2 °F 53% 30.09 in 10.0 mi WNW 9.2 mph - N/A   Clear
1:05 PM 64.2 °F 45.9 °F 51% 30.08 in 10.0 mi West 8.1 mph - N/A   Clear
1:25 PM 64.4 °F 45.7 °F 51% 30.08 in 10.0 mi West 5.8 mph - N/A   Clear
1:45 PM 65.3 °F 46.0 °F 50% 30.07 in 10.0 mi NW 8.1 mph - N/A   Clear
2:05 PM 66.2 °F 45.0 °F 46% 30.07 in 10.0 mi West 10.4 mph - N/A   Scattered Clouds
2:25 PM 66.4 °F 45.7 °F 47% 30.06 in 10.0 mi West 6.9 mph - N/A   Scattered Clouds
2:45 PM 67.5 °F 45.9 °F 46% 30.06 in 10.0 mi West 11.5 mph 16.1 mph N/A   Scattered Clouds
3:05 PM 67.6 °F 44.6 °F 43% 30.06 in 10.0 mi West 6.9 mph - N/A   Clear
3:25 PM 67.8 °F 44.6 °F 43% 30.06 in 10.0 mi WNW 8.1 mph - N/A   Clear
3:45 PM 68.0 °F 44.8 °F 43% 30.05 in 10.0 mi WNW 8.1 mph - N/A   Clear
4:05 PM 68.7 °F 44.8 °F 42% 30.04 in 10.0 mi West 9.2 mph - N/A   Clear
4:25 PM 68.4 °F 45.7 °F 44% 30.03 in 10.0 mi WNW 6.9 mph - N/A   Clear
4:45 PM 68.5 °F 44.8 °F 42% 30.02 in 10.0 mi West 8.1 mph - N/A   Clear
5:05 PM 69.1 °F 45.3 °F 42% 30.02 in 10.0 mi West 4.6 mph - N/A   Clear
5:25 PM 69.4 °F 45.7 °F 42% 30.02 in 10.0 mi West 6.9 mph - N/A   Clear
5:45 PM 69.1 °F 46.0 °F 44% 30.02 in 10.0 mi West 4.6 mph - N/A   Clear
6:05 PM 69.6 °F 45.0 °F 41% 30.01 in 10.0 mi WSW 6.9 mph - N/A   Clear
6:25 PM 68.9 °F 44.2 °F 41% 30.01 in 10.0 mi West 8.1 mph - N/A   Clear
6:45 PM 69.1 °F 41.4 °F 37% 30.00 in 10.0 mi West 6.9 mph - N/A   Clear
7:05 PM 69.3 °F 42.3 °F 38% 30.01 in 10.0 mi WNW 6.9 mph - N/A   Clear
8:05 PM 66.2 °F 43.9 °F 44% 30.02 in 10.0 mi WSW 3.5 mph - N/A   Clear
8:25 PM 64.8 °F 44.2 °F 47% 30.02 in 10.0 mi Calm Calm - N/A   Clear
8:45 PM 63.9 °F 45.3 °F 51% 30.02 in 10.0 mi West 5.8 mph - N/A   Clear
9:05 PM 63.0 °F 46.0 °F 54% 30.03 in 10.0 mi WNW 6.9 mph - N/A   Clear
9:25 PM 63.3 °F 47.3 °F 56% 30.03 in 10.0 mi West 5.8 mph - N/A   Clear
9:45 PM 62.4 °F 48.2 °F 60% 30.04 in 10.0 mi West 3.5 mph - N/A   Clear
10:05 PM 61.5 °F 48.2 °F 62% 30.05 in 10.0 mi West 5.8 mph - N/A   Clear
10:25 PM 61.3 °F 49.1 °F 64% 30.04 in 10.0 mi West 5.8 mph - N/A   Clear
10:45 PM 61.0 °F 49.3 °F 65% 30.04 in 10.0 mi West 5.8 mph - N/A   Clear
11:05 PM 60.8 °F 49.6 °F 67% 30.04 in 10.0 mi West 5.8 mph - N/A   Clear
11:25 PM 60.8 °F 49.6 °F 67% 30.04 in 10.0 mi West 5.8 mph - N/A   Clear
11:45 PM 61.2 °F 49.6 °F 66% 30.03 in 10.0 mi Calm Calm - N/A   Clear